COSMOS 2251 DEB, 33944

Orbit data source: Space-Track

COSMOS 2251 DEB, 33944 is space debris in LEO originally from a launch on Wed, 16 Jun 1993 UTC launched from the Plesetsk Missile And Space Complex (PKMTR). The debris from Iridium 33, an American commercial communications satellite, has been tracked extensively since its accidental collision with the defunct Russian satellite Cosmos 2251 in 2009. This event, occurring at high speed in low Earth orbit (LEO), generated thousands of pieces of space debris, significantly increasing the risk of further collisions. The Iridium 33 debris cloud has impacted space traffic management and orbital debris mitigation strategies, making it a subject of ongoing study in space situational awareness.

Loading next visibility...
Identifier
33944, 1993-036EZ
Orbit
LEO
Country
Flag of CISCIS
Related business
Manufacturer
Unknown
Mission
Spacecraft
Bus & Motor
Unknown
Mass
Unknown
Launch date (UTC)
1993-06-16 (33 years ago)
Launch vehicle
Unknown
Launch site
Plesetsk Missile And Space Complex (PKMTR)
Object type
Payload
Rocket body
Debris
Shape & HBR
Unknown shape, 0.1 m
Radar Cross Section
Small (<0.1 m²)

Expand to show TLE details & history
Last TLE update: 10 hours ago

TLE from 10 hours ago
0 COSMOS 2251 DEB
1 33944U 93036EZ  26034.94236052  .00000856  00000-0  27421-3 0  9998
2 33944  74.0383 211.0327 0114073 297.9583 214.9696 14.37477277887925
Epoch: 2026-02-03T22:36Z
TLE epoch observation values (Epoch: 2026-02-03T22:36:59.948Z)
Latitude
26.69606°
Longitude
-90.55872°
Altitude
836.89 km
Speed
7.402 km/s
True Right ascension
01h 31m 13s
True Declination
26° 33' 35"
Sunlit
Object was in daylight at epoch
Visualization orbit readout
Latitude
Unknown
Longitude
Unknown
Altitude
Unknown
Speed
Unknown
Apparent Right ascension
Unknown
Apparent Declination
Unknown
Sunlit
N/A
Visualization observer readout
Local Sidereal Time
10:38:27
Azimuth
Unknown
Elevation
Unknown
Doppler factor
Unknown
Orbital elements
Apogee altitude
845.945 km
Perigee altitude
682.99 km
Semi-major axis
7,142.604 km
Eccentricity
0.01141
Inclination
74.0383°
RAAN
211.0327°
Arg. of periapsis
297.9583°
True anomaly
214.22908°
Mean anomaly
214.9696°
Eccentric anomaly
214.59848°
Mean motion
3.59549 °/min
Orbital period
100.13 mins
BSTAR
0.00027421
Loading maneuver chart data...
Computing Atmospheric mass density...

Documentation

Showing up to 5 results
|